Weather History for Alpena, MI

Change the Weather History Date:

Sunday, February 24, 2013

  Actual Average Record
Temperature  
Mean Temperature 26 °F 22 °F  
Max Temperature 37 °F 31 °F 56 °F (1976)
Min Temperature 15 °F 13 °F -24 °F (1924)
Degree Days  
Heating Degree Days 39 43  
Month to date heating degree days 1106 1079  
Since 1 July heating degree days 5173 5561  
Moisture  
Dew Point 21 °F    
Average Humidity 74    
Maximum Humidity 96    
Minimum Humidity 52    
Precipitation  
Precipitation T in 0.06 in 0.68 in (1977)
Month to date precipitation 1.22 1.10  
Year to date precipitation 3.99 2.76  
Snow  
Snow T in 0.70 in 7.80 in (1990)
Month to date snowfall 11.8 15.2  
Since 1 July snowfall 32.8 63.8  
Snow Depth 6.00 in    
Sea Level Pressure  
Sea Level Pressure 29.97 in    
Wind  
Wind Speed 4 mph (WNW)    
Max Wind Speed 14 mph    
Max Gust Speed 24 mph    
Visibility 8 miles    
Events Snow    
T = Trace of Precipitation, MM = Missing Value Source: NWS Daily Summary

Daily Weather History Graph

Daily Weather History Graph

Search for Another Location

Airport:

Trip Planner

Search our weather history database for the weather conditions in past years. The results will help you decide how hot, cold, wet, or windy it might be!

Date:

Astronomy

Feb. 24, 2013 Rise Set
Actual Time 7:20 AM EST 6:15 PM EST
Civil Twilight 6:50 AM EST 6:44 PM EST
Nautical Twilight 6:16 AM EST 7:18 PM EST
Astronomical Twilight 5:42 AM EST 7:53 PM EST
Moon 5:25 PM EST (2/24) 6:18 AM EST (2/24)
Length of Visible Light 11h 54m
Length of Day
10h 54m
Waxing Gibbous, 99% of the Moon is Illuminated
Feb 24
Waxing Gibbous
Feb 25
Full
Mar 4
Last Quarter
Mar 11
New
Mar 19
First Quarter

Hourly Weather History & Observations

Time (EST) Temp. Windchill Dew Point Humidity Pressure Visibility Wind Dir Wind Speed Gust Speed Precip Events Conditions
12:13 AM 26.6 °F - 24.8 °F 93% 29.82 in 2.5 mi Calm Calm - 0.00 in Snow Light Snow
12:30 AM 24.8 °F - 23.0 °F 93% 29.82 in 5.0 mi Calm Calm - 0.00 in   Overcast
12:54 AM 25.0 °F - 21.9 °F 88% 29.85 in 6.0 mi Calm Calm - 0.00 in   Overcast
1:54 AM 25.0 °F 20.7 °F 23.0 °F 92% 29.85 in 10.0 mi WSW 3.5 mph - N/A   Overcast
2:46 AM 24.8 °F 20.5 °F 21.2 °F 86% 29.82 in 10.0 mi SW 3.5 mph - N/A   Overcast
2:54 AM 25.0 °F 20.7 °F 21.9 °F 88% 29.85 in 10.0 mi WSW 3.5 mph - N/A   Overcast
3:54 AM 25.0 °F 20.7 °F 21.9 °F 88% 29.86 in 10.0 mi WSW 3.5 mph - N/A   Mostly Cloudy
4:54 AM 24.1 °F - 21.9 °F 91% 29.87 in 7.0 mi Calm Calm - N/A   Overcast
5:54 AM 23.0 °F - 19.9 °F 88% 29.89 in 7.0 mi Calm Calm - 0.00 in   Mostly Cloudy
6:54 AM 19.9 °F - 17.1 °F 89% 29.91 in 6.0 mi Calm Calm - N/A   Scattered Clouds
7:09 AM 15.8 °F - 12.2 °F 86% 29.88 in 1.8 mi Calm Calm - N/A   Clear
7:20 AM 17.6 °F 12.3 °F 15.8 °F 93% 29.88 in 3.0 mi WSW 3.5 mph - N/A   Clear
7:54 AM 19.0 °F 12.3 °F 18.0 °F 96% 29.94 in 4.0 mi West 4.6 mph - N/A   Clear
8:16 AM 21.2 °F 14.9 °F 19.4 °F 93% 29.91 in 5.0 mi West 4.6 mph - N/A   Scattered Clouds
8:43 AM 23.0 °F 14.7 °F 21.2 °F 93% 29.91 in 6.0 mi WNW 6.9 mph - N/A   Mostly Cloudy
8:54 AM 23.0 °F 14.7 °F 21.9 °F 96% 29.95 in 7.0 mi Variable 6.9 mph - N/A   Mostly Cloudy
9:54 AM 25.0 °F 17.1 °F 21.9 °F 88% 29.97 in 10.0 mi NW 6.9 mph - N/A   Overcast
10:37 AM 28.4 °F 19.7 °F 23.0 °F 80% 29.94 in 10.0 mi West 9.2 mph - N/A   Overcast
10:54 AM 28.9 °F 22.8 °F 23.0 °F 78% 29.98 in 10.0 mi Variable 5.8 mph - N/A   Overcast
11:54 AM 30.9 °F 25.2 °F 24.1 °F 76% 29.99 in 10.0 mi West 5.8 mph - N/A   Overcast
12:01 PM 30.2 °F 24.3 °F 24.8 °F 80% 29.96 in 10.0 mi WNW 5.8 mph - N/A   Overcast
12:42 PM 32.0 °F 23.6 °F 24.8 °F 75% 29.97 in 10.0 mi NW 10.4 mph 17.3 mph N/A   Overcast
12:54 PM 32.0 °F 24.2 °F 24.1 °F 73% 30.00 in 10.0 mi NW 9.2 mph - N/A   Overcast
1:54 PM 34.0 °F 28.0 °F 23.0 °F 64% 30.00 in 10.0 mi NW 6.9 mph 16.1 mph N/A   Overcast
2:26 PM 33.8 °F 25.8 °F 23.0 °F 65% 29.97 in 10.0 mi NW 10.4 mph - N/A   Mostly Cloudy
2:54 PM 35.1 °F 27.9 °F 21.9 °F 59% 30.01 in 10.0 mi WNW 9.2 mph 17.3 mph N/A   Overcast
3:54 PM 36.0 °F 29.0 °F 19.9 °F 52% 30.02 in 10.0 mi WNW 9.2 mph 17.3 mph N/A   Mostly Cloudy
4:54 PM 34.0 °F 28.8 °F 19.9 °F 56% 30.05 in 10.0 mi WNW 5.8 mph - N/A   Overcast
5:54 PM 34.0 °F 28.8 °F 19.9 °F 56% 30.07 in 10.0 mi NW 5.8 mph - N/A   Overcast
6:54 PM 33.1 °F 28.7 °F 19.9 °F 59% 30.09 in 10.0 mi NW 4.6 mph - N/A   Overcast
7:54 PM 32.0 °F - 21.0 °F 64% 30.12 in 10.0 mi Calm Calm - N/A   Overcast
8:54 PM 32.0 °F 28.7 °F 21.9 °F 66% 30.13 in 10.0 mi WNW 3.5 mph - N/A   Overcast
9:54 PM 30.9 °F 27.5 °F 23.0 °F 72% 30.13 in 10.0 mi WNW 3.5 mph - N/A   Overcast
10:54 PM 30.9 °F - 23.0 °F 72% 30.14 in 10.0 mi Calm Calm - N/A   Overcast
11:54 PM 30.9 °F - 24.1 °F 76% 30.14 in 10.0 mi Calm Calm - N/A   Overcast